Frederick, MD

10:14 AM EDT on May 23, 2017 (GMT -0400)
Frederick Municipal

Weather History for KFDK - August, 2013

Change the Weather History Date:

Friday, August 2, 2013

  Actual Average (KHGR) Record (KHGR)
Temperature  
Mean Temperature 73 °F -  
Max Temperature 84 °F 82 °F 96 °F (2002)
Min Temperature 62 °F 63 °F 55 °F (1998)
Cooling Degree Days 8    
Growing Degree Days 23 (Base 50)    
Moisture  
Dew Point 63 °F    
Average Humidity 85    
Maximum Humidity 100    
Minimum Humidity 40    
Precipitation  
Precipitation 0.00 in - - ()
Sea Level Pressure  
Sea Level Pressure 29.95 in    
Wind  
Wind Speed 4 mph (South)    
Max Wind Speed 12 mph    
Max Gust Speed 21 mph    
Visibility 9 miles    
Events      
Averages and records for this station are not official NWS values.
T = Trace of Precipitation, MM = Missing Value Source: NWS Daily Summary

Daily Weather History Graph

Daily Weather History Graph

Search for Another Location

Airport or City:

Trip Planner

Search our weather history database for the weather conditions in past years. The results will help you decide how hot, cold, wet, or windy it might be!

Date:

Astronomy

Aug. 02, 2013 Rise Set
Actual Time 6:10 AM EDT 8:20 PM EDT
Civil Twilight 5:40 AM EDT 8:50 PM EDT
Nautical Twilight 5:03 AM EDT 9:26 PM EDT
Astronomical Twilight 4:23 AM EDT 10:06 PM EDT
Moon 2:29 AM EDT (8/2) 5:16 PM EDT (8/2)
Length of Visible Light 15h 09m
Length of Day
14h 10m
Waning Crescent, 16% of the Moon is Illuminated
Aug 2
Waning Crescent
Aug 6
New
Aug 14
First Quarter
Aug 20
Full
Aug 28
Last Quarter

Hourly Weather History & Observations

Time (EDT) Temp. Heat Index Dew Point Humidity Pressure Visibility Wind Dir Wind Speed Gust Speed Precip Events Conditions
12:10 AM 66.2 °F - 66.2 °F 100% 29.90 in 7.0 mi SSW 4.6 mph - N/A   Clear
12:30 AM 66.2 °F - 66.2 °F 100% 29.90 in 10.0 mi South 3.5 mph - N/A   Clear
12:50 AM 66.2 °F - 66.2 °F 100% 29.91 in 10.0 mi South 4.6 mph - N/A   Clear
1:10 AM 66.2 °F - 66.2 °F 100% 29.91 in 7.0 mi South 4.6 mph - N/A   Clear
1:30 AM 66.2 °F - 66.2 °F 100% 29.90 in 7.0 mi South 4.6 mph - N/A   Clear
1:50 AM 64.4 °F - 64.4 °F 100% 29.90 in 7.0 mi SSE 3.5 mph - N/A   Clear
2:10 AM 64.4 °F - 64.4 °F 100% 29.89 in 7.0 mi SE 3.5 mph - N/A   Clear
2:30 AM 64.4 °F - 64.4 °F 100% 29.90 in 7.0 mi Calm Calm - N/A   Clear
2:50 AM 64.4 °F - 64.4 °F 100% 29.90 in 4.0 mi Calm Calm - N/A   Clear
3:10 AM 64.4 °F - 64.4 °F 100% 29.90 in 5.0 mi Calm Calm - N/A   Clear
3:30 AM 64.4 °F - 64.4 °F 100% 29.90 in 7.0 mi SSE 3.5 mph - N/A   Clear
3:50 AM 62.6 °F - 62.6 °F 100% 29.90 in 7.0 mi South 4.6 mph - N/A   Clear
4:10 AM 64.4 °F - 64.4 °F 100% 29.91 in 10.0 mi South 3.5 mph - N/A   Clear
4:30 AM 62.6 °F - 62.6 °F 100% 29.92 in 7.0 mi SSE 5.8 mph - N/A   Clear
4:50 AM 62.6 °F - 62.6 °F 100% 29.92 in 7.0 mi SSE 3.5 mph - N/A   Clear
5:10 AM 62.6 °F - 62.6 °F 100% 29.92 in 5.0 mi Calm Calm - N/A   Clear
5:30 AM 62.6 °F - 62.6 °F 100% 29.94 in 7.0 mi SSE 3.5 mph - N/A   Clear
5:50 AM 62.6 °F - 62.6 °F 100% 29.94 in 5.0 mi SE 3.5 mph - N/A   Clear
6:10 AM 62.6 °F - 62.6 °F 100% 29.95 in 7.0 mi South 4.6 mph - N/A   Clear
6:30 AM 62.6 °F - 62.6 °F 100% 29.94 in 7.0 mi South 4.6 mph - N/A   Clear
6:45 AM 64.4 °F - 64.4 °F 100% 29.95 in 10.0 mi Variable 3.5 mph - N/A   Clear
7:45 AM 69.8 °F - 66.2 °F 88% 29.97 in 10.0 mi WSW 6.9 mph - N/A   Clear
8:50 AM 73.4 °F - 66.2 °F 78% 29.98 in 10.0 mi SW 6.9 mph - N/A   Clear
9:55 AM 77.0 °F - 68.0 °F 74% 29.99 in 10.0 mi SSW 6.9 mph - N/A   Clear
10:45 AM 78.8 °F - 64.4 °F 61% 29.98 in 10.0 mi West 8.1 mph - N/A   Clear
12:47 PM 82.4 °F 83.9 °F 64.4 °F 54% 29.99 in 10.0 mi WNW 11.5 mph 17.3 mph N/A   Scattered Clouds
1:55 PM 84.2 °F 85.6 °F 64.4 °F 51% 29.98 in 10.0 mi West 8.1 mph 17.3 mph N/A   Scattered Clouds
2:50 PM 84.2 °F 85.0 °F 62.6 °F 48% 29.98 in 10.0 mi West 11.5 mph 20.7 mph N/A   Scattered Clouds
3:50 PM 84.2 °F 84.4 °F 60.8 °F 45% 29.97 in 10.0 mi West 11.5 mph - N/A   Scattered Clouds
4:50 PM 84.2 °F 83.5 °F 57.2 °F 40% 29.96 in 10.0 mi ESE 11.5 mph - N/A   Clear
5:50 PM 84.2 °F 84.4 °F 60.8 °F 45% 29.96 in 10.0 mi West 9.2 mph 18.4 mph N/A   Clear
6:55 PM 82.4 °F 82.5 °F 59.0 °F 45% 29.94 in 10.0 mi West 10.4 mph - N/A   Clear
7:50 PM 78.8 °F - 60.8 °F 54% 29.95 in 10.0 mi WSW 9.2 mph - N/A   Clear
8:55 PM 71.6 °F - 60.8 °F 69% 29.97 in 10.0 mi South 3.5 mph - N/A   Clear
9:15 PM 69.8 °F - 62.6 °F 78% 29.97 in 10.0 mi Calm Calm - N/A   Clear
9:35 PM 68.0 °F - 62.6 °F 83% 29.98 in 10.0 mi Calm Calm - N/A   Clear
9:55 PM 66.2 °F - 62.6 °F 88% 29.98 in 10.0 mi Calm Calm - N/A   Clear
10:15 PM 68.0 °F - 62.6 °F 83% 29.98 in 10.0 mi South 3.5 mph - N/A   Clear
10:35 PM 66.2 °F - 64.4 °F 94% 29.98 in 10.0 mi Calm Calm - N/A   Clear
10:55 PM 66.2 °F - 62.6 °F 88% 29.99 in 10.0 mi Calm Calm - N/A   Clear
11:15 PM 64.4 °F - 62.6 °F 94% 29.99 in 10.0 mi Calm Calm - N/A   Clear
11:35 PM 64.4 °F - 64.4 °F 100% 29.99 in 10.0 mi SE 3.5 mph - N/A   Clear
11:55 PM 64.4 °F - 62.6 °F 94% 29.99 in 10.0 mi SSE 3.5 mph - N/A   Clear